Location: Unspecified
(0.0000°N, 0.0000°E)
Time: 02:57:59
(UTC+01:00)

Tiros 1 despin weight - All Passes

Search period start: 27 March 2015 00:00
Search period end: 06 April 2015 01:00
Orbit: 599 x 648 km, 48.2° (Epoch: 26 March)

Date Brightness Start Highest point End Pass type
(mag) Time Alt. Az. Time Alt. Az. Time Alt. Az.
27 Mar - 06:12:29 10° NNW 06:16:52 59° NE 06:21:20 10° SE visible
27 Mar - 18:21:32 10° SW 18:26:13 79° NW 18:30:49 10° NE daylight
28 Mar - 04:51:35 10° NNE 04:53:29 13° NE 04:55:36 10° ENE visible
28 Mar - 06:30:50 10° WNW 06:35:07 45° SW 06:39:27 10° SSE visible
28 Mar - 16:59:14 10° S 17:02:52 23° SE 17:06:34 10° ENE daylight
28 Mar - 18:40:29 10° WSW 18:44:29 27° NW 18:48:23 10° N daylight
29 Mar - 06:07:49 10° NNW 06:11:52 35° NE 06:15:59 10° ESE visible
29 Mar - 07:50:33 10° W 07:53:29 16° SW 07:56:15 10° S daylight
29 Mar - 18:16:33 10° SSW 18:21:11 63° SE 18:25:46 10° NE daylight
30 Mar - 06:25:39 10° NW 06:30:05 77° SW 06:34:36 10° SE visible
30 Mar - 16:55:17 10° SSE 16:57:43 14° SE 17:00:22 10° E daylight
30 Mar - 18:34:56 10° WSW 18:39:25 45° NW 18:43:50 10° NNE daylight
31 Mar - 05:03:26 10° N 05:06:47 22° NE 05:10:17 10° E visible
31 Mar - 06:44:37 10° WNW 06:48:23 26° SW 06:52:07 10° S visible
31 Mar - 17:11:46 10° SSW 17:16:07 38° SE 17:20:27 10° ENE daylight
31 Mar - 18:54:40 10° W 18:57:45 17° NW 19:00:37 10° N daylight
01 Apr - 05:20:42 10° NNW 05:25:04 63° NE 05:29:30 10° SE visible
01 Apr - 17:29:39 10° SW 17:34:21 75° NW 17:39:00 10° NE daylight
02 Apr - 03:59:38 10° NNE 04:01:40 13° NE 04:03:57 10° E night (unlit)
02 Apr - 05:39:05 10° WNW 05:43:18 42° SW 05:47:33 10° SSE visible
02 Apr - 16:07:15 10° S 16:11:00 24° SE 16:14:48 10° ENE daylight
02 Apr - 17:48:38 10° WSW 17:52:37 26° NW 17:56:29 10° N daylight
03 Apr - 04:15:57 10° NNW 04:20:01 37° NE 04:24:09 10° ESE night (unlit)
03 Apr - 05:58:54 10° W 06:01:39 15° SW 06:04:13 10° SSW night (unlit)
03 Apr - 16:24:35 10° SSW 16:29:17 66° SE 16:33:55 10° NE daylight
04 Apr - 04:33:50 10° NW 04:38:14 73° SW 04:42:41 10° SSE night (unlit)
04 Apr - 15:03:12 10° SSE 15:05:48 15° SE 15:08:37 10° E daylight
04 Apr - 16:43:01 10° WSW 16:47:29 43° NW 16:51:55 10° NNE daylight
05 Apr - 03:11:30 10° N 03:14:56 22° NE 03:18:28 10° ESE night (unlit)
05 Apr - 04:52:50 10° WNW 04:56:30 24° SW 05:00:06 10° S night (unlit)
05 Apr - 15:19:45 10° SSW 15:24:10 40° SE 15:28:34 10° ENE daylight
05 Apr - 17:02:49 10° W 17:05:49 16° NW 17:08:36 10° NNW daylight
